Location: Unspecified
(49.2170°N, 0.0000°E)
Time: 11:53:02
(UTC+00:00)

S-56A Canister/Altair - Pass Details

Date: 29 January 2021
Orbit: 631 x 2501 km, 38.9° (Epoch: 05 March)

Event Time Altitude Azimuth Distance (km) Brightness Sun altitude
Exits shadow 04:33:54 14° 161° (SSE) 1,875 9.6 -29.6°
Drops below altitude 10° 04:34:59 10° 150° (SSE) 2,165 10.1 -29.4°
Sets 04:38:15 0° 132° (SE) 3,277 11.3 -28.8°
